Regional Weather Roundup
Issued by NWS Bismarck, ND

Home | Current Version | Previous Version | Text Only | Print | Product List | Glossary On
Versions: 1 2 3 4 5 6 7 8 9 10 11 12 13 14 15 16 17 18 19 20 21 22 23 24 25 26 27 28 29 30 31 32 33 34 35 36 37 38 39 40 41 42 43 44 45 46 47 48 49 50
000
ASUS43 KBIS 300210
RWRBIS

NWR BROADCAST TEXT
NATIONAL WEATHER SERVICE BISMARCK ND
900 PM CDT WED JUL 29 2015

NOTE: "FAIR" INDICATES FEW OR NO CLOUDS BELOW 12,000 FEET WITH NO
SIGNIFICANT WEATHER AND/OR OBSTRUCTIONS TO VISIBILITY.


CITY           SKY/WX    TMP DP  RH WIND       PRES   REMARKS
WILLISTON      CLEAR     73  49  42 NW7       30.06S
MINOT          CLEAR     73  52  47 W13       29.99R
MINOT AFB      CLEAR     73  59  61 W9        29.98R
BISMARCK       CLEAR     77  49  37 W8        30.04R
DICKINSON      CLEAR     69  49  48 NW7       30.10R
GARRISON         N/A     68  56  65 NW9       30.03R
HETTINGER ARPT CLEAR     69  50  50 NW7       30.13R
JAMESTOWN      CLEAR     73  53  49 W12       29.99R
BEACH          FAIR      68  48  49 NW5       30.14R
CROSBY         FAIR      66  55  68 W7        30.04R
HARVEY         FAIR      72  54  53 W9        29.99R
HAZEN          FAIR      73  48  40 NW7       30.05R
LINTON         FAIR      70  59  68 CALM      30.05S
MANDAN         FAIR      66  54  63 W9        30.06R
OAKES            N/A     68  57  68 W3        30.01S
STANLEY        FAIR      66  55  68 NW6       30.06R
$$

CITY           SKY/WX    TMP DP  RH WIND       PRES   REMARKS
GRAND FORKS    PTCLDY    71  58  63 W7        29.88R
GRAND FORKS AF CLEAR     71  58  63 W7        29.90R
DEVILS LAKE    CLEAR     72  54  53 W10       29.93R
FARGO          PTCLDY    72  60  66 W9        29.93R
CAVALIER       FAIR      72  57  60 W8        29.86R
GRAFTON        FAIR      75  59  57 W12       29.88R
GWINNER        FAIR      70  57  64 W8        30.01R
LANGDON        FAIR      70  59  68 W8        29.92R
ROLLA          FAIR      64  57  77 W8        29.96R
WALHALLA       FAIR      72  57  60 MISG      29.87R
$$

CITY           SKY/WX    TMP DP  RH WIND       PRES   REMARKS
ABERDEEN       CLEAR     74  50  42 NW5       30.04R
MOBRIDGE       CLEAR     72  59  63 N3        30.05R
BUFFALO          N/A     74  40  29 NW10      30.09R
RAPID CITY     CLEAR     70  55  59 N8        30.17R
GLASGOW        CLEAR     78  47  33 W6        30.06F
SIDNEY         CLEAR    N/A N/A N/A W5        30.07R
WOLF POINT     CLEAR     77  48  35 SW8       30.06S
GLENDIVE       CLEAR     75  45  33 NW7       30.12S
MILES CITY     PTCLDY    80  41  24 N6        30.11S
BAKER          CLEAR     75  40  28 NW9       30.15R
$$

CITY           SKY/WX    TMP DP  RH WIND       PRES   REMARKS
BILLINGS       CLEAR     79  35  20 N7        30.18R
GREAT FALLS    CLEAR     79  37  22 W9        30.14S
REGINA         MOCLDY    68  54  60 W10       30.01R
ESTEVAN        PTCLDY    68  54  60 NW8       30.02R
$$



USA.gov is the U.S. government's official web portal to all federal, state and local government web resources and services.